Orbital Elements at Epoch 2459000.5 (2020-May-31.0) TDB
Reference: JPL 19 (heliocentric ecliptic J2000)
Element | Value | Uncertainty (1-sigma) | Units |
e | .3080597640595981 | 5.1236e-08 | |
a | 2.355482542861131 | 8.6393e-09 | au |
q | 1.629853146460829 | 1.2302e-07 | au |
i | 3.989019011300433 | 5.9448e-06 | deg |
node | 193.1822645412929 | 6.1352e-05 | deg |
peri | 175.5422001487208 | 6.175e-05 | deg |
M | 298.7853471032787 | 8.4632e-06 | deg |
tp | 2459225.028333136556 (2021-Jan-10.52833314) | 3.195e-05 | TDB |
period | 1320.438752883782 3.62 | 7.2646e-06 1.989e-08 | d yr |
n | .2726366514264862 | 1.4999e-09 | deg/d |
Q | 3.081111939261434 | 1.1301e-08 | au |
|
| | Orbit Determination Parameters
Additional Information
|